Weather History for Pittsburgh, PA

Change the Weather History Date:

Thursday, October 24, 2013

  Actual Average Record
Temperature  
Mean Temperature 41 °F 50 °F  
Max Temperature 47 °F 60 °F 81 °F (1963)
Min Temperature 34 °F 41 °F 21 °F (1969)
Degree Days  
Heating Degree Days 24 15  
Month to date heating degree days 170 277  
Since 1 July heating degree days 279 391  
Cooling Degree Days 0 0  
Month to date cooling degree days 36 6  
Year to date cooling degree days 831 734  
Moisture  
Dew Point 31 °F    
Average Humidity 67    
Maximum Humidity 89    
Minimum Humidity 45    
Precipitation  
Precipitation T in 0.07 in 1.15 in (1871)
Month to date precipitation 2.17 1.72  
Year to date precipitation 30.24 31.54  
Snow  
Snow T in 0.10 in 3.00 in (1917)
Month to date snowfall T 0.2  
Since 1 July snowfall T 0.2  
Snow Depth 0.00 in    
Sea Level Pressure  
Sea Level Pressure 30.06 in    
Wind  
Wind Speed 8 mph (WSW)    
Max Wind Speed 25 mph    
Max Gust Speed 31 mph    
Visibility 10 miles    
Events Rain    
T = Trace of Precipitation, MM = Missing Value Source: NWS Daily Summary

Daily Weather History Graph

Daily Weather History Graph

Search for Another Location

Airport:

Trip Planner

Search our weather history database for the weather conditions in past years. The results will help you decide how hot, cold, wet, or windy it might be!

Date:

Astronomy

Oct. 24, 2013 Rise Set
Actual Time 7:41 AM EDT 6:27 PM EDT
Civil Twilight 7:13 AM EDT 6:55 PM EDT
Nautical Twilight 6:42 AM EDT 7:27 PM EDT
Astronomical Twilight 6:10 AM EDT 7:58 PM EDT
Moon 10:50 PM EDT (10/24) 12:42 PM EDT (10/24)
Length of Visible Light 11h 41m
Length of Day
10h 45m
Waning Gibbous, 71% of the Moon is Illuminated
Oct 24
Waning Gibbous
Oct 26
Last Quarter
Nov 3
New
Nov 10
First Quarter
Nov 17
Full

Hourly Weather History & Observations

Time (EDT) Temp. Windchill Dew Point Humidity Pressure Visibility Wind Dir Wind Speed Gust Speed Precip Events Conditions
12:51 AM 37.0 °F 32.4 °F 34.0 °F 89% 29.96 in 10.0 mi West 5.8 mph - N/A   Overcast
1:51 AM 37.9 °F 33.5 °F 34.0 °F 86% 29.96 in 10.0 mi West 5.8 mph - N/A   Overcast
2:51 AM 37.9 °F 32.1 °F 34.0 °F 86% 29.96 in 10.0 mi WSW 8.1 mph - N/A   Overcast
3:51 AM 37.0 °F 30.4 °F 33.1 °F 86% 29.97 in 10.0 mi SW 9.2 mph - N/A   Overcast
4:51 AM 37.0 °F 31.6 °F 33.1 °F 86% 29.99 in 10.0 mi WSW 6.9 mph - N/A   Mostly Cloudy
5:51 AM 37.0 °F 32.4 °F 33.1 °F 86% 30.00 in 10.0 mi WSW 5.8 mph - N/A   Overcast
6:51 AM 36.0 °F 30.3 °F 30.9 °F 82% 30.02 in 10.0 mi WSW 6.9 mph - N/A   Mostly Cloudy
7:51 AM 36.0 °F 31.1 °F 30.9 °F 82% 30.03 in 10.0 mi WSW 5.8 mph - N/A   Scattered Clouds
8:51 AM 37.0 °F 31.6 °F 30.9 °F 79% 30.06 in 9.0 mi WSW 6.9 mph - N/A   Mostly Cloudy
9:51 AM 37.9 °F 30.9 °F 30.9 °F 76% 30.07 in 9.0 mi West 10.4 mph - N/A   Overcast
10:51 AM 39.0 °F 32.8 °F 30.0 °F 70% 30.07 in 10.0 mi West 9.2 mph - N/A   Mostly Cloudy
11:51 AM 43.0 °F 36.8 °F 30.0 °F 60% 30.07 in 10.0 mi West 11.5 mph 18.4 mph N/A   Mostly Cloudy
12:51 PM 44.1 °F 37.7 °F 28.0 °F 53% 30.06 in 10.0 mi West 12.7 mph 18.4 mph N/A   Mostly Cloudy
1:51 PM 44.1 °F 37.7 °F 25.0 °F 47% 30.05 in 10.0 mi West 12.7 mph 19.6 mph N/A   Mostly Cloudy
2:51 PM 45.0 °F 39.7 °F 26.1 °F 48% 30.05 in 10.0 mi West 10.4 mph - N/A   Mostly Cloudy
3:51 PM 46.0 °F 43.1 °F 26.1 °F 46% 30.07 in 10.0 mi Variable 5.8 mph - N/A   Mostly Cloudy
4:51 PM 42.1 °F 36.1 °F 28.9 °F 60% 30.08 in 10.0 mi West 10.4 mph 25.3 mph 0.00 in   Mostly Cloudy
5:51 PM 43.0 °F 37.2 °F 27.0 °F 53% 30.10 in 10.0 mi West 10.4 mph - N/A   Mostly Cloudy
6:51 PM 39.9 °F 31.4 °F 30.9 °F 70% 30.14 in 8.0 mi West 16.1 mph 23.0 mph 0.00 in Rain Light Rain
7:51 PM 37.0 °F 32.4 °F 33.1 °F 86% 30.15 in 10.0 mi WSW 5.8 mph - 0.00 in   Mostly Cloudy
8:51 PM 36.0 °F - 30.9 °F 82% 30.16 in 10.0 mi Calm Calm - N/A   Scattered Clouds
9:51 PM 36.0 °F 33.3 °F 30.9 °F 82% 30.17 in 10.0 mi SW 3.5 mph - N/A   Partly Cloudy
10:51 PM 35.1 °F 32.2 °F 30.0 °F 82% 30.18 in 10.0 mi West 3.5 mph - N/A   Clear
11:51 PM 34.0 °F 29.8 °F 30.0 °F 85% 30.18 in 10.0 mi WSW 4.6 mph - N/A   Clear